Weather History for Greenwood, SC

Change the Weather History Date:

Saturday, February 2, 2013

  Actual Average (KAND) Record (KAND)
Temperature  
Mean Temperature 36 °F -  
Max Temperature 50 °F 55 °F 78 °F (1989)
Min Temperature 21 °F 35 °F 11 °F (1980)
Degree Days  
Heating Degree Days 30    
Moisture  
Dew Point 17 °F    
Average Humidity 49    
Maximum Humidity 79    
Minimum Humidity 19    
Precipitation  
Precipitation 0.00 in - - ()
Sea Level Pressure  
Sea Level Pressure 30.28 in    
Wind  
Wind Speed 4 mph (SW)    
Max Wind Speed 17 mph    
Max Gust Speed 26 mph    
Visibility 10 miles    
Events Rain    
Averages and records for this station are not official NWS values.
T = Trace of Precipitation, MM = Missing Value Source: NWS Daily Summary

Daily Weather History Graph

Daily Weather History Graph

Search for Another Location

Airport:

Trip Planner

Search our weather history database for the weather conditions in past years. The results will help you decide how hot, cold, wet, or windy it might be!

Date:

Astronomy

Feb. 02, 2013 Rise Set
Actual Time 7:25 AM EST 6:00 PM EST
Civil Twilight 6:58 AM EST 6:26 PM EST
Nautical Twilight 6:28 AM EST 6:56 PM EST
Astronomical Twilight 5:59 AM EST 7:25 PM EST
Moon No Moon Rise 10:55 AM EST (2/2)
Length of Visible Light 11h 27m
Length of Day
10h 34m
Waning Gibbous, 60% of the Moon is Illuminated
Feb 2
Waning Gibbous
Feb 3
Last Quarter
Feb 10
New
Feb 17
First Quarter
Feb 25
Full

Hourly Weather History & Observations

Time (EST) Temp. Windchill Dew Point Humidity Pressure Visibility Wind Dir Wind Speed Gust Speed Precip Events Conditions
12:56 AM 27.0 °F 23.0 °F 9.0 °F 47% 30.37 in 10.0 mi ENE 3.5 mph - N/A   Clear
1:56 AM 27.0 °F - 9.0 °F 47% 30.38 in 10.0 mi Calm Calm - N/A   Clear
2:56 AM 24.1 °F - 10.9 °F 57% 30.38 in 10.0 mi Calm Calm - N/A   Clear
3:56 AM 25.0 °F - 12.9 °F 60% 30.37 in 10.0 mi Calm Calm - N/A   Clear
4:56 AM 23.0 °F - 14.0 °F 68% 30.37 in 10.0 mi Calm Calm - N/A   Clear
5:56 AM 21.9 °F - 12.9 °F 68% 30.37 in 10.0 mi Calm Calm - N/A   Clear
6:56 AM 21.0 °F - 12.0 °F 68% 30.39 in 10.0 mi Calm Calm - N/A   Clear
7:56 AM 21.9 °F - 15.1 °F 75% 30.40 in 10.0 mi Calm Calm - N/A   Clear
8:56 AM 28.9 °F - 17.1 °F 61% 30.39 in 10.0 mi Calm Calm - N/A   Clear
9:56 AM 34.0 °F - 12.0 °F 40% 30.38 in 10.0 mi Calm Calm - N/A   Clear
10:56 AM 39.0 °F 34.0 °F 12.0 °F 33% 30.36 in 10.0 mi SW 6.9 mph - N/A   Clear
11:56 AM 42.1 °F 39.2 °F 9.0 °F 26% 30.31 in 10.0 mi South 4.6 mph - N/A   Clear
12:56 PM 46.0 °F 41.4 °F 9.0 °F 22% 30.28 in 10.0 mi WSW 9.2 mph - 0.00 in   Clear
1:56 PM 48.0 °F - 9.0 °F 21% 30.24 in 10.0 mi SW 4.6 mph - 0.00 in   Clear
2:56 PM 50.0 °F - 9.0 °F 19% 30.21 in 10.0 mi Variable 6.9 mph - 0.00 in Rain Light Rain
3:56 PM 50.0 °F - 10.9 °F 21% 30.19 in 10.0 mi SW 10.4 mph - 0.00 in   Partly Cloudy
4:56 PM 48.9 °F - 12.9 °F 24% 30.17 in 10.0 mi Variable 5.8 mph - N/A   Mostly Cloudy
5:56 PM 46.9 °F - 16.0 °F 29% 30.14 in 10.0 mi SSW 5.8 mph - N/A   Overcast
7:56 PM 45.0 °F 39.7 °F 30.9 °F 58% 30.18 in 10.0 mi West 10.4 mph 19.6 mph 0.00 in   Overcast
8:56 PM 45.0 °F 37.6 °F 30.9 °F 58% 30.17 in 10.0 mi SW 17.3 mph 26.5 mph 0.00 in Rain Light Rain
9:56 PM 44.1 °F 38.1 °F 35.1 °F 71% 30.16 in 10.0 mi WSW 11.5 mph 18.4 mph 0.00 in   Overcast
10:56 PM 43.0 °F 36.0 °F 36.0 °F 76% 30.13 in 10.0 mi WSW 13.8 mph - N/A   Overcast
11:56 PM 42.1 °F 37.1 °F 36.0 °F 79% 30.10 in 10.0 mi WSW 8.1 mph - N/A   Scattered Clouds